Location: Grand Rapids
(42.9630°N, 85.6680°W)
Time: 03:04:36
(UTC-04:00)

deb Explorer IX - Visible Passes

Search period start: 30 May 2024 00:00
Search period end: 09 June 2024 00:00
Orbit: 512 x 889 km, 38.7° (Epoch: 30 May)

Date Brightness Start Highest point End Pass type
(mag) Time Alt. Az. Time Alt. Az. Time Alt. Az.
30 May ? 22:28:44 10° W 22:33:59 50° S 22:37:30 17° ESE visible
31 May ? 00:13:35 10° W 00:16:14 21° SW 00:16:14 21° SW visible
31 May ? 23:12:15 10° W 23:17:02 34° SSW 23:18:22 29° S visible
01 Jun ? 22:11:01 10° W 22:16:18 44° SSW 22:20:27 13° SE visible
01 Jun ? 23:56:17 10° WSW 23:59:10 18° SW 23:59:10 18° SW visible
02 Jun ? 22:54:36 10° W 22:59:10 27° SSW 23:01:14 21° S visible
03 Jun ? 21:53:10 10° W 21:58:23 37° SSW 22:03:08 10° SE visible
03 Jun ? 23:39:17 10° WSW 23:41:40 13° SW 23:41:59 13° SSW visible
04 Jun ? 22:36:58 10° W 22:41:02 21° SSW 22:44:01 13° S visible
06 Jun ? 22:19:28 10° WSW 22:22:41 15° SW 22:25:45 10° S visible
08 Jun ? 22:03:02 10° SW 22:04:05 10° SW 22:05:07 10° SSW visible
